Terug naar catalogus

STARLINK-36285

ActiefCommunicatieVLEO
NORAD 68530·PAYLOAD·🇺🇸 United States

Gelanceerd Mar 30, 2026 vanaf Cape Canaveral Space Force Station

Loading…

Volgende Passages (komende 24 uur)

TLE

VersSource: CelesTrak SupGP

Epoch: Sep 15, 2026, 02:59 UTC

1 68530C 26068Y   26258.12479167  .00064593  00000+0  19077-2 0  2584
2 68530  53.1596 326.9064 0001091  78.8178 252.9664 15.34370816    16

Volg STARLINK-36285 in realtime met AllMySat

Download on the App Store